Regional Weather Roundup
Issued by NWS

Home | Current Version | Previous Version | Graphics & Text | Print | Product List | Glossary On
Versions: 1 2 3 4 5 6 7 8 9 10 11 12 13 14 15 16 17 18 19 20 21 22 23 24 25 26 27 28 29 30 31 32 33 34 35 36 37 38 39 40 41 42 43 44 45 46 47 48 49 50
000
ASUS45 KSLC 280810
RWRUT

UTAH REGIONAL WEATHER ROUNDUP
NATIONAL WEATHER SERVICE SALT LAKE CITY UT
100 AM MST FRI NOV 28 2014

UTZ001>011-023>025-280900-

NORTHERN UTAH

CITY           SKY/WX    TMP DP  RH WIND       PRES   REMARKS
BRIGHAM CITY   MOCLDY    38  30  70 CALM      30.10F
HILL AFB       CLOUDY    45  25  44 E10       30.10F
LOGAN          CLEAR     32  29  88 SW5       30.10F WCI  27
OGDEN          CLOUDY    43  27  53 SE7       30.10S
PROVO AIRPORT  CLOUDY    34  28  80 CALM      30.15F
SALT LAKE CITY CLOUDY    47  25  42 SE9       30.09F
VERNAL         MOCLDY    30  23  75 W6        30.20F WCI  24
WENDOVER       CLOUDY    36  27  69 CALM      30.09F
HEBER CITY     CLOUDY    30  27  86 SE5       30.17F WCI  25
WEST JORDAN    CLEAR     54  28  37 S20G26    30.11F

$$

UTZ012>022-026-027-280900-

SOUTHERN/CENTRAL UTAH

CITY           SKY/WX    TMP DP  RH WIND       PRES   REMARKS
BLANDING       MOCLDY    35  21  56 NE6       30.37S WCI  30
BRYCE CANYON   PTCLDY    18  12  77 W5        30.33F WCI  11
CEDAR CITY     PTCLDY    41   9  26 S6        30.21F
DELTA          CLOUDY    37  26  66 SE8       30.15F WCI  31
MILFORD        MOCLDY    41  16  36 SW14      30.18F
MOAB/CYNLANDS  CLEAR     28  18  66 CALM      30.25F
PRICE          PTCLDY    31  22  69 N7        30.25F WCI  24
ST GEORGE      CLOUDY    39  16  38 CALM      30.22F
KANAB          PTCLDY    28  14  54 NE7       30.29F WCI  21

$$

REGIONAL REPORTS     COLORADO/ARIZONA

CITY           SKY/WX    TMP DP  RH WIND       PRES   REMARKS
CRAIG, CO      CLEAR     25  22  88 CALM      30.21F
GRAND JUNCTION PTCLDY    32  24  72 E6        30.26F WCI  26
RIFLE          CLOUDY    32  27  81 CALM      30.28F
MONTROSE       MOCLDY    30  22  72 S10       30.29F WCI  21
CORTEZ         CLEAR     24  17  74 NE5       30.32F WCI  18
PAGE, AZ       MOCLDY    41  17  38 W5        30.26S
GRAND CANYON   MOCLDY    20   3  48 CALM      30.32F
KINGMAN        CLEAR     39  15  37 S6        30.17F WCI  35
FLAGSTAFF      PTCLDY    27  10  49 CALM      30.34F

$$

REGIONAL REPORTS    NEVADA/IDAHO/WYOMING

CITY           SKY/WX    TMP DP  RH WIND       PRES   REMARKS
LAS VEGAS, NV  PTCLDY    48  21  34 SW8       30.10F
ELY            CLOUDY    39  12  33 SW6       30.22F WCI  35
ELKO           MOCLDY    36  28  73 E5        30.11F WCI  32
POCATELLO, ID  CLEAR     44  26  49 N6        30.01F
BURLEY         CLOUDY    52  26  36 SW16      29.99F
EVANSTON, WY   PTCLDY    39  18  42 SW13      30.16F WCI  31
ROCK SPRINGS   PTCLDY    40  19  43 SW15      30.12F WCI  32

$$


USA.gov is the U.S. government's official web portal to all federal, state and local government web resources and services.